GW4079 Weather Reports


Display with metric or nautical units.
time (UTC)temp
F
wind
direction
speed
MPH
gust
MPH
rain 1hr
in
rain 24hr
in
rain mn
in
humidity
%
barometer
mb
20260902113035 55 347 0.0 4.0 0.00 0.00 0.00 64 1008.3
20260902111544 56 308 0.0 6.0 0.00 0.00 0.00 62 1008.6
20260902110032 56 268 3.0 9.0 0.00 0.00 0.00 61 1008.8
20260902104537 56 258 3.0 8.0 0.00 0.00 0.00 62 1008.6
20260902103036 56 240 4.0 8.0 0.00 0.00 0.00 61 1008.4
20260902101539 55 211 5.0 8.0 0.00 0.00 0.00 61 1008.5
20260902100036 55 187 5.0 6.0 0.00 0.00 0.00 60 1008.6
20260902094537 56 179 5.0 7.0 0.00 0.00 0.00 59 1008.5
20260902093035 57 177 5.0 7.0 0.00 0.00 0.00 57 1008.6
20260902091533 58 174 3.0 5.0 0.00 0.00 0.00 55 1008.5
20260902090040 58 173 2.0 4.0 0.00 0.00 0.00 55 1008.8
20260902084546 59 173 4.0 6.0 0.00 0.00 0.00 54 1008.9
20260902083036 59 158 3.0 5.0 0.00 0.00 0.00 53 1009.1
20260902081534 60 246 2.0 4.0 0.00 0.00 0.00 52 1008.9
20260902080033 60 246 1.0 4.0 0.00 0.00 0.00 52 1009.1
20260902074535 60 248 0.0 7.0 0.00 0.00 0.00 52 1008.9
20260902073038 60 179 0.0 0.0 0.00 0.00 0.00 51 1008.8
20260902071541 61 179 2.0 4.0 0.00 0.00 0.00 49 1008.7
20260902070042 62 179 0.0 3.0 0.00 0.00 0.00 49 1008.8
20260902064541 62 179 0.0 2.0 0.00 0.00 0.00 48 1009.0
20260902063036 62 179 0.0 4.0 0.00 0.00 0.00 48 1008.9
20260902061548 63 175 3.0 5.0 0.00 0.00 0.00 46 1008.9
20260902060047 63 175 1.0 4.0 0.00 0.00 0.00 46 1009.1
20260902054538 62 202 0.0 2.0 0.00 0.00 0.00 47 1009.1
20260902053039 64 176 1.0 4.0 0.00 0.00 0.00 45 1009.1
20260902051539 64 163 0.0 3.0 0.00 0.00 0.00 45 1009.3
20260902050039 65 151 4.0 8.0 0.00 0.00 0.00 44 1009.2
20260902044539 65 151 4.0 7.0 0.00 0.00 0.00 44 1009.3
20260902043041 65 159 1.0 5.0 0.00 0.00 0.00 44 1009.5
20260902041550 66 159 4.0 6.0 0.00 0.00 0.00 44 1009.2
20260902040041 67 159 2.0 5.0 0.00 0.00 0.00 42 1009.4
20260902034542 68 159 4.0 6.0 0.00 0.00 0.00 40 1009.5
20260902033037 68 152 6.0 9.0 0.00 0.00 0.00 40 1009.7
20260902031546 68 150 4.0 7.0 0.00 0.00 0.00 39 1009.8
20260902030043 67 140 4.0 7.0 0.00 0.00 0.00 39 1009.8
20260902024540 68 140 5.0 7.0 0.00 0.00 0.00 38 1009.6
20260902023045 71 155 6.0 7.0 0.00 0.00 0.00 35 1009.6
20260902021542 72 148 6.0 9.0 0.00 0.00 0.00 34 1009.6
20260902020053 73 148 6.0 8.0 0.00 0.00 0.00 32 1009.6
20260902014544 75 130 4.0 7.0 0.00 0.00 0.00 29 1009.4
20260902013040 78 146 4.0 7.0 0.00 0.00 0.00 27 1009.5
20260902011542 80 155 6.0 11.0 0.00 0.00 0.00 25 1009.5
20260902010045 81 160 7.0 12.0 0.00 0.00 0.00 24 1009.5
20260902004545 82 153 11.0 16.0 0.00 0.00 0.00 23 1009.4
20260902003042 83 203 6.0 12.0 0.00 0.00 0.00 21 1009.5
20260902001547 83 198 9.0 12.0 0.00 0.00 0.00 21 1009.6
20260902000050 83 196 9.0 18.0 0.00 0.00 0.00 20 1009.6
20260901234547 84 165 11.0 16.0 0.00 0.00 0.00 20 1009.8
20260901233049 83 160 10.0 14.0 0.00 0.00 0.00 21 1009.8
20260901231546 83 184 6.0 14.0 0.00 0.00 0.00 22 1010.0
20260901230052 83 128 7.0 15.0 0.00 0.00 0.00 22 1010.1
20260901224538 84 172 13.0 19.0 0.00 0.00 0.00 22 1010.3
20260901223101 82 194 8.0 15.0 0.00 0.00 0.00 22 1010.4
20260901221545 81 194 10.0 16.0 0.00 0.00 0.00 23 1010.5
20260901220047 82 186 8.0 19.0 0.00 0.00 0.00 23 1010.9
20260901214549 83 188 10.0 19.0 0.00 0.00 0.00 23 1011.1
20260901213044 82 184 7.0 14.0 0.00 0.00 0.00 23 1011.0
20260901211540 82 175 9.0 17.0 0.00 0.00 0.00 24 1011.1
20260901210109 82 197 8.0 18.0 0.00 0.00 0.00 23 1011.4
20260901204544 83 202 9.0 18.0 0.00 0.00 0.00 23 1011.6
20260901203107 82 188 11.0 16.0 0.00 0.00 0.00 23 1011.6
20260901201552 82 187 12.0 18.0 0.00 0.00 0.00 23 1011.6
20260901200057 81 175 10.0 17.0 0.00 0.00 0.00 24 1011.8
20260901194555 80 182 15.0 26.0 0.00 0.00 0.00 24 1012.0
20260901193045 79 169 15.0 19.0 0.00 0.00 0.00 26 1012.4
20260901191559 79 194 14.0 25.0 0.00 0.00 0.00 26 1012.4
20260901190105 79 173 16.0 22.0 0.00 0.00 0.00 26 1012.5
20260901184546 79 174 15.0 22.0 0.00 0.00 0.00 26 1012.7
20260901183051 78 189 16.0 23.0 0.00 0.00 0.00 26 1012.9
20260901181550 77 190 15.0 22.0 0.00 0.00 0.00 28 1013.0
20260901180103 76 166 17.0 24.0 0.00 0.00 0.00 29 1013.2
20260901174606 76 159 16.0 22.0 0.00 0.00 0.00 31 1013.4
20260901173051 75 156 14.0 21.0 0.00 0.00 0.00 32 1013.3
20260901171553 73 178 10.0 16.0 0.00 0.00 0.00 36 1013.8
20260901170100 70 142 8.0 11.0 0.00 0.00 0.00 40 1013.9
20260901164553 68 148 7.0 14.0 0.00 0.00 0.00 41 1014.0
20260901163050 68 165 11.0 14.0 0.00 0.00 0.00 41 1014.1
20260901161609 67 152 7.0 11.0 0.00 0.00 0.00 43 1014.2
20260901160051 65 159 4.0 7.0 0.00 0.00 0.00 46 1014.2
20260901154557 64 186 7.0 10.0 0.00 0.00 0.00 48 1014.3
20260901153055 63 192 6.0 9.0 0.00 0.00 0.00 48 1014.5
20260901151551 63 207 6.0 8.0 0.00 0.00 0.00 50 1014.5
20260901150107 62 35 0.0 2.0 0.00 0.00 0.00 54 1014.3
20260901144559 60 35 1.0 4.0 0.00 0.00 0.00 58 1014.5
20260901143115 58 35 2.0 4.0 0.00 0.00 0.00 62 1014.4
20260901141606 56 35 2.0 4.0 0.00 0.00 0.00 67 1014.3
20260901140057 53 35 3.0 5.0 0.00 0.00 0.00 72 1014.2
20260901134556 51 35 2.0 4.0 0.00 0.00 0.00 74 1014.1
20260901133103 49 35 2.0 4.0 0.00 0.00 0.00 77 1014.0
20260901131547 48 35 0.0 0.0 0.00 0.00 0.00 77 1014.0
20260901130059 48 35 0.0 5.0 0.00 0.00 0.00 76 1014.0
20260901124553 48 35 4.0 5.0 0.00 0.00 0.00 75 1014.1
20260901123052 48 35 4.0 6.0 0.00 0.00 0.00 74 1014.0
20260901121558 49 40 5.0 8.0 0.00 0.00 0.00 73 1014.1
20260901120117 48 45 5.0 6.0 0.00 0.00 0.00 74 1014.0
20260901114627 47 131 3.0 5.0 0.00 0.00 0.00 76 1014.2